KFWB Airport (Branson West Muni - Emerson Field) Information

FAA: FWB - ICAO: KFWB

KFWB Airport Location

State Missouri
County Stone
City Branson West
KFWB Airport is 2 miles west of Branson West, MO.
Latitude 36-41-54.6000N
Longitude 093-24-08.1000W
Elevation 1,348ft

KFWB Airport METARs

METAR KFWB 251735Z AUTO VRB04G10KT 10SM BKN022 14/09 A3006 RMK AO2
Altimeter 30.06"
Temperature 14.0°C (57.2°F)
Wind 0° at 4KT with gusts to 10KT
Clouds broken at 2,200ft
Visibility 10.0mi
Time observed: 2021-10-25T17:35:00Z

KFWB Airport Details

Status Operational
Activation November 2009
Ownership Public
Usage Public
Chart KANSAS CITY
ATC on-site No
Beacon schedule sunset-sunrise
Beacon color clear green

KFWB Airport Contacts

Owner CITY OF BRANSON WEST
Owner address P.O. BOX 2229, BRANSON WEST, MO 65737
Owner phone 417-272-3313
Manager LIONEL SMITH
Manager address 736 DILLARD ROAD, IRONTON, MO 63650
Manager phone (573) 315-9626

KFWB Airport (Branson West Muni - Emerson Field) Radio Frequencies

KFWB (Airport) Radio Frequencies

UNICOM 123
Common traffic advisory frequency (CTAF) 123